XR-1 (47507 NORAD) Tracking and Keplerian Element Data

This shows tracking and keplerian element data for the satellite.

Feedback or suggestion? Click here.




ElementValue
Catalog47507
NameXR-1
Epoch Orbit1172
Epoch Day100.1696899
Epoch Year2021
RAAN162.5664
Inclination97.4977
Eccentricity0.0015104
Argument of Perigee344.9957
Mean Anonmoly15.5849
Mean Motion15.13826373
Decay Rate0.00368767
L11 47507U 21006CY 21100.16968990 .00368767 00000-0 19379-1 0 9991
L22 47507 97.4977 162.5664 0015104 344.9957 15.5849 15.13826373 11722

Live tracking and technical data element details for XR-1 (NORAD 47507). XR-1 can be tracked NOW for your location showing map with azimuth and elevation plus other details from your city location.

Track the satellite on the map from your city or location and see movement details for azimuth, elevation, latitude, longitude, range, height, and movement on the map or in text.







IsCatalogInMostPopularTable: catalog: 47507, numindb: 15
Update: records affected: 1



GetName: 47507 XR-1

Hit Count: updated at: Sat, 10 Apr 2021 18:30:31 GMT